contact:dominique.lefevre@mio.osupytheas.fr, maurice.libes@osupytheas.fr
Project:EMSO Ligure-ouest http://www.emso-fr.org/EMSO-France
Sensor Aquadopp, line 13 Serial AQD14315 
DOI : "https://doi.org/10.17882/74513; https://doi.org/10.17882/83244" 
Title:EMSO Ligure Ouest : Data ligne ALBATROSS capteur AQUADOPP - deploiement 2021
Id,Date,Profondeur,Latitude,Longitude,X_East,Y_North,Z_Up,Amplitude_X,Amplitude_Y,Amplitude_Z,Batterie,SoundSpeed,Heading,Pitch,Roll,Pressure,Temperature,Speed,Direction
, , m, degrees North, degrees East, m.s-1, m.s-1,m.s-1, 1, 1, 1, Volt, m.s-1, degree, degree, degree, dbar, degree_C, m.s-1, degree
09,2021-07-23T21:30:00,2000.0,42.79,6.0312,0.021,-0.026,0.001,77.0,71.0,72.0,13.2,1504.7,141.5,-0.8,0.9,1990.92,13.28,0.033,141.1
09,2021-07-23T22:00:00,2000.0,42.79,6.0312,0.007,-0.023,0.004,75.0,70.0,74.0,13.2,1504.7,140.3,-0.9,1.0,1990.936,13.28,0.024,163.1
09,2021-07-23T22:30:00,2000.0,42.79,6.0312,-0.009,-0.011,-0.003,74.0,69.0,76.0,13.2,1504.7,140.3,-0.7,1.0,1990.84,13.28,0.014,219.3
09,2021-07-23T23:00:00,2000.0,42.79,6.0312,0.013,-0.004,0.009,72.0,68.0,74.0,13.2,1504.7,137.9,-0.8,1.0,1990.839,13.28,0.013,107.1
09,2021-07-23T23:30:00,2000.0,42.79,6.0312,0.006,-0.018,-0.041,73.0,71.0,73.0,13.2,1504.7,143.6,-0.8,1.0,1990.828,13.28,0.018,161.6
09,2021-07-24T00:00:00,2000.0,42.79,6.0312,0.036,-0.01,-0.018,75.0,68.0,75.0,13.2,1504.7,142.4,-0.8,1.1,1990.847,13.28,0.037,105.5
09,2021-07-24T00:30:00,2000.0,42.79,6.0312,0.004,-0.011,-0.019,75.0,73.0,73.0,13.2,1504.7,140.4,-0.9,1.1,1990.785,13.28,0.011,160.0
09,2021-07-24T01:00:00,2000.0,42.79,6.0312,0.003,-0.017,-0.006,73.0,69.0,72.0,13.2,1504.7,137.8,-0.8,0.9,1990.803,13.28,0.017,170.0
09,2021-07-24T01:30:00,2000.0,42.79,6.0312,0.016,-0.003,-0.035,74.0,72.0,74.0,13.2,1504.7,137.0,-0.8,1.1,1990.79,13.28,0.016,100.6
09,2021-07-24T02:00:00,2000.0,42.79,6.0312,-0.008,-0.041,0.0,75.0,69.0,74.0,13.2,1504.7,139.2,-0.8,1.0,1990.745,13.28,0.041,191.0
09,2021-07-24T02:30:00,2000.0,42.79,6.0312,0.013,-0.011,0.034,77.0,75.0,74.0,13.2,1504.7,137.5,-0.7,1.0,1990.746,13.28,0.017,130.2
09,2021-07-24T03:00:00,2000.0,42.79,6.0312,0.036,-0.019,0.001,76.0,72.0,74.0,13.2,1504.7,136.8,-0.8,1.0,1990.757,13.28,0.04,117.8
09,2021-07-24T03:30:00,2000.0,42.79,6.0312,0.019,-0.012,-0.009,74.0,71.0,76.0,13.2,1504.7,131.8,-0.8,1.0,1990.751,13.28,0.022,122.3
09,2021-07-24T04:00:00,2000.0,42.79,6.0312,-0.002,-0.027,-0.021,72.0,70.0,77.0,13.2,1504.7,136.8,-0.8,1.0,1990.785,13.28,0.027,184.2
09,2021-07-24T04:30:00,2000.0,42.79,6.0312,0.01,-0.011,0.007,76.0,72.0,74.0,13.2,1504.7,132.4,-0.8,1.1,1990.801,13.28,0.014,137.7
09,2021-07-24T05:00:00,2000.0,42.79,6.0312,0.017,0.0,-0.015,76.0,71.0,72.0,13.2,1504.7,132.9,-0.8,1.0,1990.816,13.28,0.017,90.0
09,2021-07-24T05:30:00,2000.0,42.79,6.0312,0.028,-0.008,-0.013,78.0,75.0,73.0,13.2,1504.7,136.3,-0.8,1.0,1990.843,13.28,0.029,105.9
09,2021-07-24T06:00:00,2000.0,42.79,6.0312,0.007,-0.032,-0.011,75.0,72.0,78.0,13.2,1504.7,135.7,-1.0,1.0,1990.859,13.28,0.032,167.7
09,2021-07-24T06:30:00,2000.0,42.79,6.0312,0.006,-0.006,0.006,76.0,71.0,77.0,13.2,1504.7,136.7,-0.7,1.0,1990.887,13.28,0.008,135.0
09,2021-07-24T07:00:00,2000.0,42.79,6.0312,0.025,-0.019,-0.035,75.0,72.0,73.0,13.2,1504.7,141.2,-0.8,1.0,1990.836,13.28,0.031,127.2
09,2021-07-24T07:30:00,2000.0,42.79,6.0312,0.01,-0.016,-0.01,72.0,71.0,77.0,13.2,1504.7,145.8,-0.9,1.0,1990.885,13.28,0.018,148.0
09,2021-07-24T08:00:00,2000.0,42.79,6.0312,0.0,-0.007,-0.022,75.0,72.0,76.0,13.2,1504.7,144.0,-1.0,1.0,1990.86,13.28,0.007,180.0
09,2021-07-24T08:30:00,2000.0,42.79,6.0312,0.009,-0.01,-0.003,74.0,72.0,75.0,13.2,1504.7,150.8,-0.8,1.0,1990.83,13.28,0.013,138.0
09,2021-07-24T09:00:00,2000.0,42.79,6.0312,0.007,-0.006,-0.018,76.0,72.0,77.0,13.2,1504.7,151.9,-0.9,1.0,1990.854,13.28,0.009,130.6
09,2021-07-24T09:30:00,2000.0,42.79,6.0312,0.022,-0.008,-0.003,76.0,70.0,77.0,13.2,1504.7,156.6,-0.9,0.9,1990.842,13.28,0.023,110.0
09,2021-07-24T10:00:00,2000.0,42.79,6.0312,0.009,-0.013,-0.006,76.0,72.0,74.0,13.2,1504.7,152.5,-0.8,1.1,1990.778,13.28,0.015,145.3
09,2021-07-24T10:30:00,2000.0,42.79,6.0312,0.023,-0.017,-0.009,76.0,72.0,76.0,13.2,1504.7,154.2,-0.8,1.0,1990.769,13.28,0.028,126.5
09,2021-07-24T11:00:00,2000.0,42.79,6.0312,0.042,-0.019,0.019,77.0,71.0,74.0,13.2,1504.7,157.6,-0.9,1.0,1990.759,13.28,0.046,114.3
09,2021-07-24T11:30:00,2000.0,42.79,6.0312,0.034,-0.009,-0.034,75.0,74.0,74.0,13.2,1504.7,156.1,-0.9,0.9,1990.703,13.28,0.035,104.8
09,2021-07-24T12:00:00,2000.0,42.79,6.0312,0.003,-0.018,0.003,75.0,74.0,76.0,13.2,1504.7,154.1,-1.0,1.0,1990.737,13.28,0.018,170.5
09,2021-07-24T12:30:00,2000.0,42.79,6.0312,0.017,-0.027,-0.019,75.0,72.0,75.0,13.2,1504.7,153.1,-0.9,1.0,1990.676,13.28,0.031,147.8
09,2021-07-24T13:00:00,2000.0,42.79,6.0312,-0.003,-0.011,0.018,75.0,73.0,72.0,13.2,1504.7,154.1,-0.9,1.0,1990.69,13.28,0.011,195.3
09,2021-07-24T13:30:00,2000.0,42.79,6.0312,0.008,-0.023,0.036,73.0,73.0,72.0,13.2,1504.7,158.8,-0.9,1.0,1990.663,13.28,0.024,160.8
09,2021-07-24T14:00:00,2000.0,42.79,6.0312,-0.009,-0.037,-0.008,74.0,72.0,72.0,13.2,1504.7,159.9,-0.9,0.9,1990.698,13.28,0.038,193.7
09,2021-07-24T14:30:00,2000.0,42.79,6.0312,0.022,-0.017,0.006,73.0,69.0,73.0,13.2,1504.7,159.2,-0.9,1.1,1990.668,13.28,0.027,127.7
09,2021-07-24T15:00:00,2000.0,42.79,6.0312,0.008,-0.016,0.007,75.0,69.0,73.0,13.2,1504.7,157.0,-0.9,1.0,1990.675,13.28,0.017,153.4
09,2021-07-24T15:30:00,2000.0,42.79,6.0312,0.006,-0.013,-0.013,74.0,70.0,72.0,13.2,1504.7,154.2,-0.9,1.0,1990.72,13.28,0.014,155.2
09,2021-07-24T16:00:00,2000.0,42.79,6.0312,0.001,-0.018,0.011,75.0,70.0,74.0,13.2,1504.7,153.5,-0.8,1.0,1990.734,13.28,0.018,176.8
09,2021-07-24T16:30:00,2000.0,42.79,6.0312,0.008,-0.023,0.017,77.0,70.0,75.0,13.2,1504.7,148.4,-0.9,1.1,1990.757,13.28,0.024,160.8
09,2021-07-24T17:00:00,2000.0,42.79,6.0312,0.021,-0.04,-0.014,75.0,71.0,73.0,13.2,1504.7,157.2,-0.7,1.0,1990.856,13.28,0.045,152.3
09,2021-07-24T17:30:00,2000.0,42.79,6.0312,0.021,-0.02,-0.017,73.0,70.0,74.0,13.2,1504.7,155.1,-0.9,1.0,1990.842,13.28,0.028,133.6
09,2021-07-24T18:00:00,2000.0,42.79,6.0312,0.002,-0.03,-0.036,75.0,70.0,75.0,13.2,1504.7,158.5,-1.0,1.0,1990.934,13.28,0.03,176.2
09,2021-07-24T18:30:00,2000.0,42.79,6.0312,-0.016,-0.035,-0.004,76.0,69.0,77.0,13.2,1504.7,167.1,-0.9,1.0,1990.934,13.28,0.038,204.6
09,2021-07-24T19:00:00,2000.0,42.79,6.0312,-0.008,-0.037,-0.01,78.0,73.0,76.0,13.2,1504.7,163.1,-0.8,1.0,1990.953,13.28,0.037,192.2
09,2021-07-24T19:30:00,2000.0,42.79,6.0312,0.004,-0.024,0.0,76.0,72.0,75.0,13.2,1504.7,163.9,-0.9,1.0,1990.957,13.28,0.024,170.5
09,2021-07-24T20:00:00,2000.0,42.79,6.0312,0.018,-0.025,0.001,79.0,73.0,76.0,13.2,1504.7,165.9,-0.8,1.0,1990.996,13.28,0.03,144.2
09,2021-07-24T20:30:00,2000.0,42.79,6.0312,-0.012,-0.009,-0.005,77.0,74.0,72.0,13.2,1504.7,166.5,-0.9,1.1,1990.992,13.28,0.015,233.1
09,2021-07-24T21:00:00,2000.0,42.79,6.0312,-0.011,-0.027,-0.01,79.0,73.0,74.0,13.2,1504.7,166.3,-1.0,1.1,1991.015,13.28,0.029,202.2
